CW9009 Weather Reports


time (UTC)temp
F
wind
direction
speed
knots
gust
knots
rain 1hr
in
rain 24hr
in
rain mn
in
humidity
%
barometer
mb
20260901154418 74 68 1.7 2.6 0.00 0.00 0.00 59 1010.6
20260901153438 73 76 1.7 2.6 0.00 0.00 0.00 60 1010.6
20260901152438 71 122 2.6 2.6 0.00 0.00 0.00 63 1010.4
20260901151438 69 66 1.7 1.7 0.00 0.00 0.00 67 1010.4
20260901150419 67 57 0.9 2.6 0.00 0.00 0.00 69 1010.4
20260901145419 66 182 0.0 1.7 0.00 0.00 0.00 69 1010.5
20260901144419 65 179 0.9 1.7 0.00 0.00 0.00 69 1010.5
20260901143419 65 14 0.9 1.7 0.00 0.00 0.00 68 1010.4
20260901142420 64 343 0.9 1.7 0.00 0.00 0.00 68 1010.3
20260901141419 64 80 0.9 0.9 0.00 0.00 0.00 68 1010.1
20260901140420 64 0 0.0 0.0 0.00 0.00 0.00 69 1010.1
20260901135420 64 51 0.0 0.9 0.00 0.00 0.00 68 1010.1
20260901134420 64 63 0.9 0.9 0.00 0.00 0.00 67 1010.1
20260901133420 64 0.0 0.0 0.00 0.00 0.00 65 1010.1
20260901132420 64 80 0.9 1.7 0.00 0.00 0.00 64 1010.0
20260901131420 64 0.0 0.0 0.00 0.00 0.00 64 1010.0
20260901130421 64 280 0.0 0.9 0.00 0.00 0.00 67 1009.9
20260901125421 64 0.0 0.0 0.00 0.00 0.00 68 1009.9
20260901124421 64 0.0 0.0 0.00 0.00 0.00 65 1009.9
20260901123421 64 0.0 0.0 0.00 0.00 0.00 64 1009.8
20260901122421 64 107 0.9 1.7 0.00 0.00 0.00 65 1009.9
20260901121421 65 0.0 0.0 0.00 0.00 0.00 64 1009.7
20260901120421 64 0.0 0.0 0.00 0.00 0.00 63 1009.8
20260901115422 64 289 0.9 1.7 0.00 0.00 0.00 64 1009.8
20260901114422 65 0.0 0.0 0.00 0.00 0.00 64 1009.6
20260901113422 65 0 0.0 0.0 0.00 0.00 0.00 62 1009.4
20260901112422 65 0.0 0.0 0.00 0.00 0.00 64 1009.4
20260901111443 65 0.0 0.0 0.00 0.00 0.00 63 1009.3
20260901110423 65 96 0.9 1.7 0.00 0.00 0.00 55 1009.2
20260901105423 65 190 0.0 0.0 0.00 0.00 0.00 55 1009.1
20260901104443 65 64 0.0 1.7 0.00 0.00 0.00 54 1009.1
20260901103423 65 286 0.0 0.9 0.00 0.00 0.00 53 1008.8
20260901102423 65 0 0.0 0.0 0.00 0.00 0.00 52 1008.6
20260901101444 66 0.0 0.0 0.00 0.00 0.00 50 1008.7
20260901100424 67 0.0 0.0 0.00 0.00 0.00 49 1008.6
20260901095424 67 179 0.0 0.0 0.00 0.00 0.00 47 1008.6
20260901094425 67 173 0.9 1.7 0.00 0.00 0.00 47 1008.6
20260901093444 66 123 1.7 1.7 0.00 0.00 0.00 47 1008.8
20260901092424 66 110 0.9 1.7 0.00 0.00 0.00 47 1008.8
20260901091424 66 88 0.9 1.7 0.00 0.00 0.00 47 1009.1
20260901090425 65 0 0.0 0.0 0.00 0.00 0.00 48 1009.2
20260901085425 65 0.0 0.0 0.00 0.00 0.00 48 1009.2
20260901084425 65 0 0.0 0.0 0.00 0.00 0.00 49 1009.3
20260901083425 65 116 0.9 1.7 0.00 0.00 0.00 50 1009.4
20260901082425 65 0 0.0 0.0 0.00 0.00 0.00 52 1009.4
20260901081445 65 109 1.7 1.7 0.00 0.00 0.00 50 1009.6
20260901080426 65 0.0 0.0 0.00 0.00 0.00 50 1009.7
20260901075446 65 0.0 0.0 0.00 0.00 0.00 49 1009.6
20260901074426 65 74 0.0 0.9 0.00 0.00 0.00 50 1009.7
20260901073426 65 0.0 0.0 0.00 0.00 0.00 52 1009.7
20260901072426 65 0.0 0.0 0.00 0.00 0.00 48 1009.7
20260901071447 65 0.0 0.0 0.00 0.00 0.00 52 1009.7
20260901070427 64 0.0 0.0 0.00 0.00 0.00 54 1009.7
20260901065427 65 0.0 0.0 0.00 0.00 0.00 57 1009.8
20260901064427 65 0.0 0.0 0.00 0.00 0.00 55 1009.7
20260901063427 65 0.0 0.0 0.00 0.00 0.00 55 1009.7
20260901062427 66 0.0 0.0 0.00 0.00 0.00 60 1009.8
20260901061448 66 105 0.9 1.7 0.00 0.00 0.00 53 1009.9
20260901060428 66 0.0 0.0 0.00 0.00 0.00 53 1009.7
20260901055428 67 0.0 0.0 0.00 0.00 0.00 54 1009.7
20260901054428 68 0 0.0 0.0 0.00 0.00 0.00 59 1010.0
20260901053428 69 0.0 0.0 0.00 0.00 0.00 45 1010.1
20260901052429 69 95 1.7 1.7 0.00 0.00 0.00 45 1010.3
20260901051449 69 84 1.7 2.6 0.00 0.00 0.00 47 1010.3
20260901050429 69 86 1.7 1.7 0.00 0.00 0.00 48 1010.4
20260901045429 69 69 0.9 0.9 0.00 0.00 0.00 50 1010.3
20260901044429 70 0.0 0.0 0.00 0.00 0.00 52 1010.3
20260901043430 71 119 0.9 0.9 0.00 0.00 0.00 52 1010.1
20260901042430 71 109 0.0 0.9 0.00 0.00 0.00 50 1010.0
20260901041450 72 0.0 0.0 0.00 0.00 0.00 49 1009.9
20260901040430 73 0.0 0.0 0.00 0.00 0.00 49 1009.8
20260901035430 73 0.0 0.0 0.00 0.00 0.00 50 1009.8
20260901034430 74 0.0 0.0 0.00 0.00 0.00 50 1009.9
20260901033450 75 0.0 0.0 0.00 0.00 0.00 47 1009.7
20260901032430 76 0.0 0.0 0.00 0.00 0.00 43 1009.6
20260901031451 77 0.0 0.0 0.00 0.00 0.00 44 1009.7
20260901030416 78 0.0 0.0 0.00 0.00 0.00 42 1009.6
20260901025416 79 0.0 0.0 0.00 0.00 0.00 40 1009.6
20260901024417 80 0.0 0.0 0.00 0.00 0.00 40 1009.4
20260901023417 80 0.0 0.0 0.00 0.00 0.00 39 1009.4
20260901022416 82 0.0 0.0 0.00 0.00 0.00 38 1009.4
20260901021417 83 0.0 0.0 0.00 0.00 0.00 37 1009.5
20260901020417 84 0.0 0.0 0.00 0.00 0.00 35 1009.6
20260901015437 85 0.0 0.0 0.00 0.00 0.00 34 1009.6
20260901014457 86 0.0 0.0 0.00 0.00 0.00 34 1009.7
20260901013453 87 0.0 0.0 0.00 0.00 0.00 33 1009.8
20260901012433 87 0.0 0.0 0.00 0.00 0.00 34 1009.8
20260901011418 88 0.0 0.0 0.00 0.00 0.00 33 1009.8
20260901010418 88 0.0 0.0 0.00 0.00 0.00 33 1009.8
20260901005418 88 0.0 0.0 0.00 0.00 0.00 33 1009.9
20260901004439 88 0.0 0.0 0.00 0.00 0.00 32 1009.9
20260901003419 88 0.0 0.0 0.00 0.00 0.00 32 1009.9
20260901002419 89 0.0 0.0 0.00 0.00 0.00 30 1010.1
20260901001419 88 0.0 0.0 0.00 0.00 0.00 30 1010.4
20260901000420 89 297 0.9 1.7 0.00 0.00 0.00 30 1010.5
20260831235419 89 285 0.0 0.9 0.00 0.00 0.00 29 1010.6
20260831234420 89 270 0.0 0.9 0.00 0.00 0.00 29 1010.7
20260831233420 89 0.0 0.0 0.00 0.00 0.00 29 1010.8
20260831232420 88 175 0.0 0.9 0.00 0.00 0.00 29 1010.8
20260831231420 88 0.0 0.0 0.00 0.00 0.00 29 1010.9
20260831230420 88 257 0.0 0.9 0.00 0.00 0.00 29 1011.0
20260831225420 88 0.0 0.0 0.00 0.00 0.00 30 1011.1
20260831224421 88 0.0 0.0 0.00 0.00 0.00 29 1011.3
20260831223420 87 0.0 0.0 0.00 0.00 0.00 29 1011.4
20260831222421 88 0.0 0.0 0.00 0.00 0.00 29 1011.7
20260831221421 88 0.0 0.0 0.00 0.00 0.00 28 1011.9
20260831220421 87 270 0.0 0.9 0.00 0.00 0.00 29 1012.1
20260831215421 86 74 0.9 1.7 0.00 0.00 0.00 30 1012.4
20260831214443 86 0.0 0.0 0.00 0.00 0.00 30 1012.5
20260831213422 85 0.0 0.0 0.00 0.00 0.00 32 1012.6
20260831212422 85 0 0.0 0.0 0.00 0.00 0.00 32 1012.8
20260831211423 84 0.0 0.0 0.00 0.00 0.00 30 1013.0
20260831210422 84 264 0.0 0.9 0.00 0.00 0.00 33 1013.2
20260831205423 84 282 0.9 1.7 0.00 0.00 0.00 34 1013.3
20260831204422 82 271 0.9 1.7 0.00 0.00 0.00 33 1013.5
20260831203443 82 3 0.9 1.7 0.00 0.00 0.00 35 1013.7
20260831202423 82 104 1.7 1.7 0.00 0.00 0.00 35 1013.8
20260831201423 80 305 0.9 2.6 0.00 0.00 0.00 34 1013.9
20260831200423 80 0.0 0.0 0.00 0.00 0.00 34 1014.1
20260831195444 79 273 0.0 0.9 0.00 0.00 0.00 38 1014.4
20260831194423 78 170 1.7 2.6 0.00 0.00 0.00 38 1014.5
20260831193424 78 0.0 0.0 0.00 0.00 0.00 39 1014.7
20260831192424 77 98 0.9 1.7 0.00 0.00 0.00 37 1014.7
20260831191424 76 262 3.5 5.2 0.00 0.00 0.00 38 1014.8
20260831190504 75 81 0.0 0.9 0.00 0.00 0.00 39 1015.0
20260831185424 74 270 0.9 2.6 0.00 0.00 0.00 42 1015.2
20260831184445 74 0.0 0.0 0.00 0.00 0.00 42 1015.3
20260831183425 73 127 0.9 1.7 0.00 0.00 0.00 42 1015.6
20260831182425 72 0.0 0.0 0.00 0.00 0.00 44 1015.6
20260831181425 71 275 1.7 2.6 0.00 0.00 0.00 42 1015.9
20260831180425 70 315 0.9 3.5 0.00 0.00 0.00 44 1015.9
20260831175426 69 0.0 0.0 0.00 0.00 0.00 45 1016.1
20260831174426 69 124 0.9 1.7 0.00 0.00 0.00 45 1016.2
20260831173426 68 0.0 0.0 0.00 0.00 0.00 47 1016.2
20260831172426 67 0.0 0.0 0.00 0.00 0.00 47 1016.2
20260831171427 67 184 0.0 1.7 0.00 0.00 0.00 45 1016.2
20260831170427 65 0.0 0.0 0.00 0.00 0.00 45 1016.3
20260831165446 64 0 0.0 0.0 0.00 0.00 0.00 45 1016.3
20260831164427 64 87 0.0 1.7 0.00 0.00 0.00 45 1016.4
20260831163447 63 0.0 0.0 0.00 0.00 0.00 48 1016.5
20260831162427 62 353 0.0 0.9 0.00 0.00 0.00 49 1016.6
20260831161427 60 0 0.0 0.0 0.00 0.00 0.00 50 1016.7
20260831160427 59 82 0.9 0.9 0.00 0.00 0.00 52 1016.9
20260831155428 58 0.0 0.0 0.00 0.00 0.00 53 1017.0